Location: Shenandoah County Park
(38.9356°N, 78.4524°W)
Time: 06:42:50
(UTC-04:00)

Vanguard 1 Rocket - Pass Details

Date: 07 February 2023
Orbit: 652 x 4223 km, 34.3° (Epoch: 26 March)

Event Time Altitude Azimuth Distance (km) Brightness Sun altitude
Rises 14:57:45 0° 274° (W) 5,111 11.7 25.5°
Reaches altitude 10° 15:00:27 10° 272° (W) 4,461 11.6 25.2°
Maximum altitude 15:13:54 69° 193° (SSW) 3,230 10.9 23.4°
Drops below altitude 10° 15:37:58 10° 116° (ESE) 7,361 11.8 20.0°
Sets 15:44:04 0° 115° (ESE) 8,464 12.1 19.1°
